Regional Weather Roundup
Issued by NWS Cleveland, OH

Home | Current Version | Previous Version | Text Only | Print | Product List | Glossary On
Versions: 1 2 3 4 5 6 7 8 9 10 11 12 13 14 15 16 17 18 19 20 21 22 23 24 25 26 27 28 29 30 31 32 33 34 35 36 37 38 39 40 41 42 43 44 45 46 47 48 49 50
000
ASUS41 KCLE 141112
RWRCLE
OHIO REGIONAL WEATHER ROUNDUP
NATIONAL WEATHER SERVICE WILMINGTON, OH
600 AM EST THU DEC 14 2017

NOTE: "FAIR" INDICATES FEW OR NO CLOUDS BELOW 12,000 FEET WITH NO
SIGNIFICANT WEATHER AND/OR OBSTRUCTIONS TO VISIBILITY.

OHZ001>008-015>018-024>027-034-035-043-044-141200-
   NORTHWEST OHIO

CITY           SKY/WX    TMP DP  RH WIND       PRES   REMARKS
DEFIANCE       FAIR      17  10  74 N10       29.88R WCI   5
FINDLAY        FAIR      16  11  80 NW6       29.83R WCI   7
TOLEDO EXPRESS CLOUDY    19  15  84 NW10      29.85R WCI   7
TOLEDO EXEC    FAIR      16  11  80 NW9       29.85R WCI   4
LIMA           MOCLDY    17  14  88 NW6       29.84R WCI   9
$$

OHZ009>014-019>023-028>033-038-089-141200-
   NORTHEAST OHIO

CITY           SKY/WX    TMP DP  RH WIND       PRES   REMARKS
CLE-HOPKINS    FLURRIES  25  18  74 N16       29.79R WCI  12
CLE-LAKEFRONT  CLOUDY    26  18  71 N23G29    29.76R WCI  11
CUY CO. ARPT   NOT AVBL
LORAIN-ELYRIA  CLOUDY    23  12  62 N15       29.79R WCI  10
ASHTABULA      LGT SNOW  20  17  88 VRB7      29.74R FOG     WCI  11
AKRON-CANTON   LGT SNOW  25  21  85 NW15G24   29.70R VSB 1   WCI  13
WOOSTER        MIX PCPN  22  19  89 NW14      29.75R WCI   9
MANSFIELD      CLOUDY    20  16  84 NW16      29.77R WCI   6
YOUNGSTOWN     LGT SNOW  22  19  89 N13       29.67R VSB 1   WCI  10
$$

OHZ042-051>053-060>062-070>072-077>081-141200-
  SOUTHWEST OHIO

CITY           SKY/WX    TMP DP  RH WIND       PRES   REMARKS
CINC-COVINGTON CLOUDY    31  22  69 N13       29.84R WCI  21
CINC-LUNKEN    CLOUDY    32  21  64 NW14      29.88R WCI  22
HAMILTON       MOCLDY    28  19  69 N9        29.89R WCI  19
DAYTON         CLOUDY    22  17  81 N15G22    29.86R WCI   9
WRIGHT-PAT AFB CLOUDY    23  17  76 NW13G21   29.85R WCI  12
DAYTON GENERAL CLOUDY    24  16  71 N14       29.85R WCI  12
WILMINGTON     CLOUDY    25  19  78 N15       29.83R WCI  13
$$

OHZ036-037-039>041-045>050-054>059-063>069-073>076-082>088-141200-
  CENTRAL AND SOUTHEAST OHIO

CITY           SKY/WX    TMP DP  RH WIND       PRES   REMARKS
COLUMBUS       FLURRIES  25  19  78 N17G25    29.82R WCI  12
OSU AIRPORT    CLOUDY    23  19  85 N16       29.82R WCI  10
BOLTON FIELD   CLOUDY    25  19  77 NW14G23   29.82R WCI  13
RICKENBACK AFB CLOUDY    26  19  76 NW16G22   29.82R WCI  13
NEWARK         CLOUDY    26  19  74 NW10      29.80R WCI  16
MARION         CLOUDY    21  16  81 NW12      29.82R WCI   9
LANCASTER      CLOUDY    26  20  77 NW12      29.81R WCI  16
ZANESVILLE     CLOUDY    28  21  75 NW12      29.76R WCI  18
NEW PHILLY     CLOUDY    27  21  78 NW10      29.73R WCI  17
$$



USA.gov is the U.S. government's official web portal to all federal, state and local government web resources and services.